Location: *
(55.6049°S, 142.1985°W)
Time: 01:04:15
(UTC+00:00)

SMAP - Pass Details

Date: 12 May 2021
Orbit: 681 x 683 km, 98.1° (Epoch: 18 June)

Event Time Altitude Azimuth Distance (km) Brightness Sun altitude
Rises 15:48:05 0° 340° (NNW) 3,052 6.4 -11.9°
Reaches altitude 10° 15:50:41 10° 326° (NW) 2,145 5.4 -11.5°
Maximum altitude 15:54:31 24° 271° (W) 1,414 4.1 -11.0°
Drops below altitude 10° 15:58:24 10° 216° (SW) 2,169 5.2 -10.5°
Enters shadow 16:00:33 - 204° (SSW) 2,908 5.9 -10.2°
